Location: ????????
(54.9045°N, 39.1041°E)
Time: 00:28:28
(UTC+00:00)

Envisat - Visible Passes

Search period start: 20 June 2024 00:00
Search period end: 30 June 2024 00:00
Orbit: 762 x 764 km, 98.3° (Epoch: 19 June)

Date Brightness Start Highest point End Pass type
(mag) Time Alt. Az. Time Alt. Az. Time Alt. Az.
21 Jun 5.4 23:20:47 10° NE 23:23:54 16° E 23:27:01 10° ESE visible
23 Jun 5.0 23:44:21 10° NE 23:48:28 24° E 23:52:33 10° SE visible
24 Jun 5.6 23:08:18 10° NE 23:10:33 13° E 23:12:47 10° ESE visible
26 Jun 5.3 23:31:29 10° NE 23:35:09 20° E 23:38:48 10° SE visible
29 Jun 5.4 23:18:46 10° NE 23:21:49 16° E 23:24:51 10° ESE visible
